[[{"header":{"parameterUnit":"m.s-1","parameterCategory":1,"la1":30.2991,"la2":30.254,"lo1":-89.0895,"lo2":-89.0444,"dy":0.0017,"dx":0.0017,"nx":28,"ny":28,"refTime":"2023-10-03T03:00:00:Z","depth":0,"parameterNumber":2,"parameterNumberName":"U-component_of_WINDS"},"data":[0,0,0,0,0,0,0,0,0,0,0,0,0,0,0,0,0,0,0,0,0,0,0,0,0,0,0,0,0,0,0,0,0,0,0,0,0,0,0,0,0,0,0,0,0,0,0,0,0,0,0,0,0,0,0,0,0,0,-3.0017,-3.0016,0,-2.9941,-2.994,-2.9939,-2.9746,-2.9742,-2.9738,-2.9734,-2.9661,-2.9663,-2.9665,0,0,0,0,0,0,0,0,0,0,0,0,0,-3.0001,-3.0002,-3.0017,-3.0016,-3.0015,-2.9941,-2.994,-2.9939,-2.9746,-2.9741,-2.9736,-2.9732,-2.9661,-2.9663,-2.9665,0,0,0,0,0,0,0,0,0,0,0,0,0,-2.9975,-3.0003,-3.0017,-2.991,-2.99,-2.9941,-2.994,-2.9938,-2.9748,-2.9741,-2.9735,-2.9729,-2.966,-2.9663,-2.9665,-2.9806,0,0,-2.9674,-2.9675,0,0,0,0,0,0,0,0,-2.9977,-2.9976,-2.9927,-2.9917,-2.9906,-2.9846,-2.9907,-2.9894,-2.9749,-2.9806,-2.9734,-2.9726,-2.9728,-2.9725,-2.9724,-2.9803,-2.98,-2.9674,-2.9676,-2.9677,-2.9678,0,0,0,0,0,0,0,-2.9979,-2.9978,-2.9987,-2.9926,-2.9914,-2.9867,-2.9857,-2.9904,-2.9803,-2.98,-2.9786,-2.9779,-2.9721,-2.9722,-2.9721,-2.9798,-2.9674,-2.9677,-2.9678,-2.968,-2.9988,-2.9995,0,0,0,0,0,0,-2.9995,-2.9981,-2.9989,-2.9984,-2.9927,-2.9873,-2.9861,-2.9872,-2.9801,-2.9785,-2.9785,-2.977,-2.972,-2.9718,-2.9718,-2.9878,-2.9677,-2.968,-2.9681,-2.9982,-2.999,-2.9997,0,0,0,0,0,0,-2.9996,-2.9998,-2.9992,-2.9979,-2.9974,-2.9879,-2.9893,-2.9874,-2.9874,-2.9789,-2.9771,-2.9804,-2.9715,-2.9714,-2.9785,-2.9873,-2.9681,-2.9684,-2.9974,-2.9984,-2.9993,-3.02,0,0,0,0,0,0,-2.9996,-2.9999,-3.0051,-2.9981,-2.9976,-3.006,-2.9899,-2.9876,-2.9879,-2.986,-2.9803,-2.9787,-2.971,-2.9782,-2.9788,-2.9873,-2.9686,-2.9966,-2.9979,-2.999,-3.0185,-3.0215,-3.0241,0,0,0,0,0,-2.9996,-3.0113,-3.0054,-3.0056,-3.0038,-3.0066,-3.0063,-2.997,-2.9887,-2.9938,-2.9884,-2.9789,-2.9862,-2.9791,-2.9796,-2.9883,-2.996,-2.9975,-2.9989,-3.0172,-3.0209,-3.0241,0,0,0,0,0,0,-3.0197,-3.0102,-3.0036,-3.0133,-3.0109,-3.0033,-3.0095,-3.0013,-3.0013,-2.9995,-2.9882,-2.9871,-2.9958,-2.9927,-2.985,-3.0016,-2.9896,-2.9912,-3.0033,-3.0067,-3.0095,-3.0101,-2.9688,0,0,0,0,0,-3.0252,-3.0281,-3.0197,-3.0291,-3.0282,-3.0192,-3.02,-3.0131,-3.0101,-3.0091,-3.0041,-3.0018,-3.0035,-3.005,-3.0061,-3.0179,-3.0164,-3.0242,-3.027,-3.0294,-3.031,-3.037,-3.0404,-3.0045,-3.0045,-3.0045,0,0,-3.0368,-3.0319,-3.0345,-3.0331,-3.0303,-3.0337,-3.0184,-3.0226,-3.025,-3.0097,-3.0161,-3.0125,-3.0091,-3.0187,-3.0226,-3.0164,-3.0405,-3.0312,-3.0332,-3.0335,-3.0389,-3.0423,-3.0453,-3.0055,-3.0053,-3.0051,0,0,-3.0595,-3.0561,-3.0636,-3.0611,-3.0571,-3.051,-3.0528,-3.0464,-3.0434,-3.0495,-3.0381,-3.0409,-3.0442,-3.0423,-3.0417,-3.0637,-3.055,-3.0644,-3.0793,-3.0853,-3.0882,-3.0906,-3.0985,-3.1015,-3.066,-3.0661,-3.0661,0,-3.0744,-3.0789,-3.0685,-3.0734,-3.0732,-3.0593,-3.0668,-3.065,-3.0617,-3.062,-3.055,-3.0587,-3.0555,-3.0644,-3.0697,-3.0698,-3.0716,-3.0651,-3.0886,-3.0909,-3.0931,-3.1005,-3.1035,-3.0672,-3.0671,-3.067,-3.0669,0,-3.0974,-3.1007,-3.1072,-3.1041,-3.1046,-3.1109,-3.1016,-3.1034,-3.0964,-3.0911,-3.0976,-3.0932,-3.0933,-3.0948,-3.0882,-3.1029,-3.0991,-3.0906,-3.0782,-3.0978,-3.1046,-3.1074,-3.0689,-3.0685,-3.0681,-3.0679,0,0,-3.1327,-3.1237,-3.1263,-3.1247,-3.1192,-3.1217,-3.1273,-3.1271,-3.1289,-3.1271,-3.1317,-3.1347,-3.1267,-3.1261,-3.1191,-3.1244,-3.1422,-3.1151,-3.1149,-3.1204,-3.1581,-3.1647,-3.1681,-3.1363,-3.1368,-3.1372,-3.1584,0,-3.1541,-3.163,-3.1539,-3.1648,-3.1677,-3.1545,-3.1594,-3.1568,-3.1519,-3.1539,-3.1485,-3.1509,-3.1401,-3.1397,-3.1443,-3.139,-3.1496,-3.1374,-3.1406,-3.1409,-3.1419,-3.1716,-3.1785,-3.1988,-3.161,-3.1615,-3.1618,0,-3.1803,-3.1795,-3.1906,-3.1844,-3.1853,-3.1899,-3.1889,-3.1909,-3.1876,-3.1837,-3.1831,-3.1745,-3.1798,-3.1678,-3.1749,-3.1668,-3.1676,-3.1652,-3.1658,-3.1658,-3.1526,-3.1725,-3.205,-3.2081,-3.1658,-3.1655,-3.1652,0,-3.2049,-3.2067,-3.2135,-3.2126,-3.2055,-3.209,-3.2063,-3.2023,-3.2028,-3.2021,-3.2023,-3.2023,-3.2024,-3.2027,-3.1944,-3.1864,-3.2027,-3.1899,-3.1997,-3.2,-3.2038,-3.2037,-3.237,-3.2043,-3.2043,-3.2042,-3.2041,0,-3.2298,-3.2372,-3.2245,-3.2287,-3.2366,-3.2261,-3.2342,-3.2301,-3.2268,-3.2301,-3.2188,-3.2222,-3.211,-3.2133,-3.2069,-3.2139,-3.214,-3.2111,-3.2094,-3.2122,-3.2126,-3.2126,-3.211,-3.205,-3.2048,-3.2047,-3.2045,0,-3.2587,-3.2505,-3.2571,-3.2498,-3.2481,-3.2543,-3.2481,-3.2518,-3.2462,-3.2506,-3.251,-3.2423,-3.2444,-3.2362,-3.237,-3.2327,-3.243,-3.2389,-3.2441,-3.2429,-3.2532,-3.2524,-3.2877,-3.2918,-3.2565,-3.2569,-3.2571,0,-3.2752,-3.2805,-3.2737,-3.275,-3.2728,-3.2751,-3.2755,-3.2653,-3.2662,-3.2629,-3.2671,-3.2682,-3.2685,-3.2726,-3.2665,-3.267,-3.2628,-3.2752,-3.2629,-3.2655,-3.2631,-3.2629,-3.2634,-3.2778,-3.2782,-3.2786,-3.2789,0,-3.3053,-3.3009,-3.3017,-3.3013,-3.302,-3.3011,-3.2995,-3.3013,-3.2904,-3.292,-3.2939,-3.2942,-3.2949,-3.2962,-3.2955,-3.2928,-3.2842,-3.2828,-3.2851,-3.288,-3.2909,-3.2895,-3.2512,-3.282,-3.2817,-3.2815,-3.2813,-3.2812,-3.3284,-3.3325,-3.3284,-3.3297,-3.3274,-3.3262,-3.3293,-3.324,-3.3253,-3.325,-3.319,-3.3221,-3.3187,-3.3168,-3.315,-3.3174,-3.3116,-3.315,-3.3158,-3.3169,-3.3187,-3.2905,-3.3172,-3.3171,-3.317,-3.317,-3.3169,0,-3.358,-3.3546,-3.3559,-3.354,-3.3551,-3.3465,-3.3443,-3.3459,-3.3487,-3.3462,-3.3467,-3.349,-3.3502,-3.3442,-3.3446,-3.3477,-3.3438,-3.3482,-3.3479,-3.3475,-3.3237,-3.3217,-3.3514,-3.3514,-3.3514,-3.3514,-3.3514,-3.3514,-3.3735,-3.38,-3.3751,-3.3804,-3.377,-3.3798,-3.3793,-3.3782,-3.376,-3.379,-3.3799,-3.3758,-3.372,-3.372,-3.3728,-3.371,-3.3718,-3.3776,-3.3745,-3.3525,-3.3491,-3.3459,-3.344,-3.3778,-3.3779,-3.398,-3.3982,-3.3983]},{"header":{"parameterUnit":"m.s-1","parameterCategory":1,"la1":30.2991,"la2":30.254,"lo1":-89.0895,"lo2":-89.0444,"dy":0.0017,"dx":0.0017,"nx":28,"ny":28,"refTime":"2023-10-03T03:00:00:Z","depth":0,"parameterNumber":3,"parameterNumberName":"V-component_of_WINDS"},"data":[0,0,0,0,0,0,0,0,0,0,0,0,0,0,0,0,0,0,0,0,0,0,0,0,0,0,0,0,0,0,0,0,0,0,0,0,0,0,0,0,0,0,0,0,0,0,0,0,0,0,0,0,0,0,0,0,0,0,-1.8596,-1.8597,0,-1.8694,-1.8695,-1.8696,-1.8733,-1.8733,-1.8733,-1.8733,-1.883,-1.8832,-1.8835,0,0,0,0,0,0,0,0,0,0,0,0,0,-1.844,-1.8443,-1.8596,-1.8598,-1.8599,-1.8693,-1.8695,-1.8696,-1.8734,-1.8733,-1.8733,-1.8733,-1.8829,-1.8832,-1.8835,0,0,0,0,0,0,0,0,0,0,0,0,0,-1.852,-1.8444,-1.8596,-1.8629,-1.8633,-1.8693,-1.8695,-1.8696,-1.8734,-1.8733,-1.8733,-1.8732,-1.8828,-1.8832,-1.8836,-1.887,0,0,-1.8849,-1.8851,0,0,0,0,0,0,0,0,-1.8515,-1.8525,-1.8623,-1.8627,-1.8631,-1.8701,-1.8675,-1.8755,-1.8734,-1.8695,-1.8733,-1.8732,-1.8787,-1.8795,-1.8814,-1.8875,-1.8879,-1.8849,-1.8852,-1.8854,-1.8855,0,0,0,0,0,0,0,-1.851,-1.8521,-1.8635,-1.8624,-1.8629,-1.8638,-1.8649,-1.8691,-1.8742,-1.8699,-1.8702,-1.8713,-1.8789,-1.8809,-1.8816,-1.888,-1.8849,-1.8853,-1.8856,-1.8857,-1.8973,-1.8974,0,0,0,0,0,0,-1.8499,-1.8517,-1.8632,-1.8638,-1.8571,-1.8641,-1.8653,-1.8679,-1.8742,-1.8751,-1.8713,-1.8714,-1.8802,-1.8811,-1.882,-1.8863,-1.8854,-1.8858,-1.886,-1.8973,-1.8973,-1.8974,0,0,0,0,0,0,-1.8496,-1.8509,-1.8628,-1.8578,-1.8594,-1.8644,-1.8673,-1.8681,-1.8701,-1.8753,-1.8762,-1.8724,-1.8802,-1.8814,-1.8857,-1.8867,-1.886,-1.8863,-1.8972,-1.8973,-1.8974,-1.8951,0,0,0,0,0,0,-1.8491,-1.8508,-1.8522,-1.8578,-1.8596,-1.8664,-1.8674,-1.8683,-1.8709,-1.8711,-1.8766,-1.8774,-1.8803,-1.8851,-1.8861,-1.8873,-1.8867,-1.8971,-1.8972,-1.8973,-1.8951,-1.8951,-1.8951,0,0,0,0,0,-1.8485,-1.8511,-1.8522,-1.8536,-1.8615,-1.8665,-1.8675,-1.8709,-1.871,-1.8724,-1.8757,-1.8773,-1.8864,-1.8855,-1.8867,-1.888,-1.8971,-1.8972,-1.8973,-1.8951,-1.8951,-1.8951,0,0,0,0,0,0,-1.8454,-1.8519,-1.8532,-1.8577,-1.8615,-1.8671,-1.869,-1.8707,-1.8745,-1.8746,-1.8785,-1.8797,-1.8837,-1.8863,-1.8851,-1.8916,-1.8919,-1.8922,-1.8898,-1.8898,-1.8898,-1.889,-1.887,0,0,0,0,0,-1.8452,-1.8488,-1.8543,-1.8577,-1.8596,-1.864,-1.8662,-1.8685,-1.8725,-1.8742,-1.8778,-1.8816,-1.8853,-1.8877,-1.8914,-1.8955,-1.8967,-1.897,-1.897,-1.8969,-1.8972,-1.8995,-1.8997,-1.8978,-1.8978,-1.8978,0,0,-1.8449,-1.8489,-1.8509,-1.8572,-1.8604,-1.8639,-1.8653,-1.869,-1.8716,-1.8747,-1.879,-1.8818,-1.8863,-1.8905,-1.8925,-1.8928,-1.898,-1.8971,-1.897,-1.8973,-1.8996,-1.8998,-1.9,-1.8979,-1.8978,-1.8978,0,0,-1.8461,-1.8496,-1.8528,-1.856,-1.8609,-1.8638,-1.8645,-1.8699,-1.8718,-1.8763,-1.8787,-1.8818,-1.8882,-1.8913,-1.8937,-1.896,-1.8976,-1.8971,-1.897,-1.8992,-1.8994,-1.8995,-1.9003,-1.9005,-1.8974,-1.8974,-1.8974,0,-1.8451,-1.8506,-1.8542,-1.8578,-1.8604,-1.8634,-1.8667,-1.8696,-1.8754,-1.8771,-1.8773,-1.8854,-1.8886,-1.8936,-1.8941,-1.896,-1.8969,-1.8965,-1.8991,-1.8993,-1.8995,-1.9002,-1.9005,-1.8973,-1.8973,-1.8973,-1.8973,0,-1.8491,-1.8528,-1.8548,-1.8604,-1.8633,-1.8667,-1.8707,-1.8731,-1.8751,-1.8779,-1.8823,-1.8863,-1.8909,-1.8923,-1.8942,-1.8975,-1.8975,-1.8983,-1.8987,-1.8995,-1.9003,-1.9006,-1.8971,-1.8972,-1.8972,-1.8972,0,0,-1.8486,-1.8561,-1.8568,-1.8594,-1.8649,-1.8679,-1.8713,-1.8759,-1.8779,-1.8818,-1.8847,-1.89,-1.8909,-1.8936,-1.8959,-1.8978,-1.8993,-1.8984,-1.8986,-1.8984,-1.9031,-1.9024,-1.9027,-1.9004,-1.9005,-1.9006,-1.9027,0,-1.8506,-1.857,-1.8603,-1.8652,-1.8687,-1.8716,-1.8746,-1.8783,-1.881,-1.8843,-1.8873,-1.891,-1.8918,-1.8935,-1.8955,-1.8987,-1.9003,-1.8986,-1.9031,-1.9032,-1.9019,-1.9031,-1.9024,-1.9043,-1.9031,-1.9031,-1.9032,0,-1.8537,-1.8576,-1.8629,-1.8681,-1.8696,-1.8723,-1.8767,-1.8798,-1.884,-1.8859,-1.8889,-1.8912,-1.8948,-1.8949,-1.8999,-1.8987,-1.9007,-1.9026,-1.9027,-1.9032,-1.9032,-1.9036,-1.905,-1.9052,-1.9037,-1.9037,-1.9036,0,-1.8527,-1.8593,-1.8634,-1.8655,-1.8716,-1.8734,-1.876,-1.8802,-1.8827,-1.8865,-1.8881,-1.8923,-1.8945,-1.8977,-1.9009,-1.9007,-1.9056,-1.906,-1.9072,-1.9071,-1.9081,-1.908,-1.9097,-1.9094,-1.9094,-1.9094,-1.9094,0,-1.8546,-1.8577,-1.863,-1.8655,-1.8691,-1.8728,-1.8762,-1.879,-1.8827,-1.8857,-1.8884,-1.8911,-1.8953,-1.8986,-1.9012,-1.9049,-1.9059,-1.9074,-1.9081,-1.9072,-1.907,-1.9086,-1.9085,-1.9095,-1.9095,-1.9095,-1.9095,0,-1.8541,-1.8578,-1.8624,-1.8678,-1.8692,-1.8716,-1.8762,-1.8787,-1.8815,-1.8853,-1.8864,-1.8908,-1.8948,-1.8984,-1.9036,-1.9053,-1.9091,-1.91,-1.9077,-1.9081,-1.9091,-1.9089,-1.9118,-1.9124,-1.9117,-1.9117,-1.9117,0,-1.855,-1.8575,-1.8632,-1.8654,-1.868,-1.8716,-1.8741,-1.8778,-1.8804,-1.8854,-1.8872,-1.8914,-1.8949,-1.901,-1.9047,-1.9087,-1.9096,-1.9104,-1.9102,-1.9092,-1.9096,-1.9094,-1.9096,-1.9103,-1.9103,-1.9103,-1.9103,0,-1.8562,-1.8579,-1.8615,-1.8658,-1.8688,-1.8724,-1.876,-1.8776,-1.882,-1.8847,-1.8889,-1.8916,-1.8969,-1.901,-1.9054,-1.908,-1.9098,-1.9103,-1.9108,-1.9099,-1.9085,-1.9092,-1.9076,-1.9102,-1.9102,-1.9102,-1.9102,-1.9102,-1.8564,-1.8587,-1.8631,-1.867,-1.8702,-1.8735,-1.876,-1.8792,-1.8827,-1.8874,-1.8894,-1.8935,-1.8976,-1.9037,-1.9063,-1.9096,-1.9099,-1.9106,-1.9108,-1.9109,-1.9107,-1.908,-1.9104,-1.9104,-1.9104,-1.9104,-1.9104,0,-1.8577,-1.8606,-1.8642,-1.8692,-1.8723,-1.8738,-1.8779,-1.8804,-1.884,-1.8877,-1.8911,-1.8958,-1.8998,-1.9037,-1.9079,-1.9097,-1.9106,-1.9107,-1.9105,-1.9111,-1.9102,-1.9094,-1.9098,-1.9098,-1.9098,-1.9098,-1.9098,-1.9098,-1.8587,-1.8627,-1.8649,-1.8704,-1.8734,-1.8775,-1.8797,-1.8827,-1.8857,-1.8908,-1.8941,-1.8967,-1.9005,-1.9049,-1.9086,-1.9097,-1.911,-1.9108,-1.9121,-1.9112,-1.9112,-1.9112,-1.9104,-1.9111,-1.9111,-1.9127,-1.9128,-1.9128]}]]